Regional Weather Roundup
Issued by NWS

Home | Current Version | Previous Version | Text Only | Print | Product List | Glossary On
Versions: 1 2 3 4 5 6 7 8 9 10 11 12 13 14 15 16 17 18 19 20 21 22 23 24 25 26 27 28 29 30 31 32 33 34 35 36 37 38 39 40 41 42 43 44 45 46 47 48 49 50
000
ASUS44 KBMX 081910
RWRAL

ALABAMA REGIONAL WEATHER ROUNDUP
NATIONAL WEATHER SERVICE BIRMINGHAM AL
100 PM CST THU DEC 08 2016

NOTE: "FAIR" INDICATES FEW OR NO CLOUDS BELOW 12,000 FEET
WITH NO SIGNIFICANT WEATHER AND/OR OBSTRUCTIONS TO VISIBILITY.

THE REMARK "TC" DENOTES TEMPERATURE IN DEGREES CELSIUS.

ALZ001>011-014-016>018-020-082000-
NORTH ALABAMA

CITY           SKY/WX    TMP DP  RH WIND       PRES   REMARKS
MUSCLE SHOALS  CLOUDY    43  22  43 NW12      30.42F
HUNTSVILLE     CLOUDY    41  24  51 NW12      30.39F
DECATUR        CLOUDY    40  24  53 NW9       30.40F WCI  34
HALEYVILLE     FAIR      39  22  50 N13       30.41S WCI  31
GADSDEN        CLOUDY    44  23  43 NW10      30.37S
$$

ALZ012-013-022-023-030>036-040>044-082000-
WEST CENTRAL ALABAMA

CITY           SKY/WX    TMP DP  RH WIND       PRES   REMARKS
TUSCALOOSA     CLOUDY    47  26  44 N13       30.40F
$$

ALZ015-024>027-033>036-040>044-082000-
CENTRAL ALABAMA

CITY           SKY/WX    TMP DP  RH WIND       PRES   REMARKS
BIRMINGHAM     CLOUDY    45  24  43 NW12G18   30.38F
MONTGOMERY     MOSUNNY   53  23  31 NW13      30.32F
SHELBY CO ARPT CLOUDY    46  25  43 N13       30.36F
MAXWELL AFB    PTSUNNY   51  24  33 N14       30.31F
GREENVILLE     PTSUNNY   55  29  36 N17G23    30.27F
$$

ALZ019-021-028-029-037-038-045>048-082000-
EAST CENTRAL ALABAMA

CITY           SKY/WX    TMP DP  RH WIND       PRES   REMARKS
ANNISTON       CLOUDY    46  21  37 NW14      30.34F
ALEXANDER CITY MOSUNNY   51  24  35 N14G25    30.31F
AUBURN         MOSUNNY   51  24  34 N17       30.28F
$$

ALZ051>064-082000-
SOUTHWEST ALABAMA

CITY           SKY/WX    TMP DP  RH WIND       PRES   REMARKS
MOBILE         CLOUDY    51  35  54 N15       30.30F
BROOKLEY FIELD CLOUDY    53  37  54 N15       30.31S
EVERGREEN      CLOUDY    53  33  46 N14G23    30.29F
$$

ALZ049-050-065>069-082000-
SOUTHEAST ALABAMA

CITY           SKY/WX    TMP DP  RH WIND       PRES   REMARKS
DOTHAN         CLOUDY    59  38  45 N15G23    30.25F
OZARK          CLOUDY    59  35  41 N14       30.23F
TROY           CLOUDY    54  31  41 NW16G26   30.27F
EUFAULA        PTSUNNY   58  32  37 NW9G17    30.23F
$$



USA.gov is the U.S. government's official web portal to all federal, state and local government web resources and services.